VA3PPY Weather Reports


Display with metric or nautical units.
time (UTC)temp
F
wind
direction
speed
MPH
gust
MPH
rain 1hr
in
rain 24hr
in
rain mn
in
humidity
%
barometer
mb
20260510194551 51 44 1.0 4.0 0.00 0.15 0.00 59 1018.0
20260510193050 51 33 2.0 7.0 0.00 0.15 0.00 59 1018.3
20260510191555 51 360 3.0 9.0 0.00 0.15 0.00 60 1018.2
20260510190054 51 340 3.0 9.0 0.00 0.15 0.00 60 1018.1
20260510184550 50 23 3.0 7.0 0.00 0.15 0.00 62 1017.9
20260510183056 51 300 2.0 8.0 0.00 0.15 0.00 58 1017.7
20260510181555 52 16 2.0 7.0 0.00 0.15 0.00 59 1017.6
20260510180049 51 1 2.0 6.0 0.00 0.15 0.00 60 1017.5
20260510174550 51 332 3.0 6.0 0.00 0.15 0.00 62 1017.5
20260510173051 51 6 2.0 6.0 0.00 0.15 0.00 68 1017.6
20260510171551 51 360 4.0 9.0 0.00 0.15 0.00 62 1017.6
20260510170051 50 329 2.0 8.0 0.00 0.15 0.00 58 1017.6
20260510164551 50 28 1.0 8.0 0.00 0.15 0.00 61 1017.6
20260510163050 50 30 2.0 7.0 0.00 0.15 0.00 62 1017.5
20260510161550 49 349 1.0 7.0 0.00 0.15 0.00 57 1017.4
20260510160127 49 321 2.0 5.0 0.00 0.15 0.00 57 1017.3
20260510154555 49 320 2.0 5.0 0.00 0.15 0.00 56 1017.2
20260510153050 49 307 2.0 6.0 0.00 0.15 0.00 59 1017.1
20260510151550 49 306 1.0 4.0 0.00 0.15 0.00 62 1017.1
20260510150051 49 311 0.0 4.0 0.00 0.15 0.00 64 1016.9
20260510144551 48 266 2.0 4.0 0.00 0.15 0.00 66 1016.7
20260510143050 48 258 1.0 5.0 0.00 0.15 0.00 64 1016.4
20260510141551 48 257 2.0 5.0 0.00 0.15 0.00 63 1016.2
20260510140055 48 297 3.0 4.0 0.00 0.15 0.00 64 1016.0
20260510134552 47 297 1.0 5.0 0.00 0.16 0.00 64 1015.6
20260510133053 47 297 0.0 3.0 0.00 0.16 0.00 65 1015.5
20260510131553 47 297 1.0 4.0 0.00 0.16 0.00 66 1015.4
20260510130051 46 297 0.0 4.0 0.00 0.16 0.00 66 1015.2
20260510124551 45 298 1.0 3.0 0.00 0.16 0.00 67 1015.1
20260510123052 45 301 0.0 3.0 0.00 0.16 0.00 70 1015.0
20260510121551 45 302 1.0 4.0 0.00 0.16 0.00 71 1014.9
20260510120051 44 302 1.0 4.0 0.00 0.16 0.00 73 1014.7
20260510114552 43 328 1.0 6.0 0.00 0.16 0.00 77 1014.5
20260510113051 42 267 1.0 3.0 0.00 0.16 0.00 81 1014.2
20260510111607 42 266 1.0 4.0 0.00 0.16 0.00 86 1014.1
20260510110052 39 266 0.0 4.0 0.00 0.16 0.00 91 1013.8
20260510104552 35 266 0.0 2.0 0.00 0.16 0.00 90 1013.7
20260510103052 35 308 0.0 0.0 0.00 0.16 0.00 90 1013.5
20260510101553 35 308 0.0 1.0 0.00 0.16 0.00 88 1013.3
20260510100054 36 308 0.0 2.0 0.00 0.16 0.00 88 1013.2
20260510094553 37 308 0.0 2.0 0.00 0.16 0.00 87 1012.8
20260510093104 38 308 0.0 1.0 0.00 0.16 0.00 85 1012.5
20260510091552 40 308 0.0 3.0 0.00 0.16 0.00 85 1012.1
20260510090107 40 308 0.0 3.0 0.00 0.16 0.00 84 1011.9
20260510084552 40 308 0.0 2.0 0.00 0.16 0.00 83 1011.5
20260510083106 41 308 0.0 3.0 0.00 0.16 0.00 82 1011.3
20260510081607 41 308 0.0 2.0 0.00 0.16 0.00 81 1011.1
20260510080055 41 306 0.0 4.0 0.00 0.16 0.00 80 1011.0
20260510074558 42 321 0.0 2.0 0.00 0.16 0.00 80 1010.7
20260510073053 42 321 0.0 3.0 0.00 0.16 0.00 78 1010.5
20260510071553 42 321 2.0 8.0 0.00 0.16 0.00 77 1010.5
20260510070054 42 1 2.0 6.0 0.00 0.16 0.00 79 1010.3
20260510064603 42 13 1.0 5.0 0.00 0.16 0.00 79 1010.2
20260510063053 42 346 2.0 7.0 0.00 0.16 0.00 78 1010.0
20260510061556 43 23 2.0 9.0 0.00 0.16 0.00 77 1010.0
20260510060052 43 26 2.0 9.0 0.00 0.16 0.00 77 1010.0
20260510054553 43 23 2.0 10.0 0.00 0.16 0.00 77 1009.9
20260510053053 43 1 3.0 9.0 0.00 0.16 0.00 78 1009.8
20260510051557 44 338 3.0 10.0 0.00 0.16 0.00 78 1009.7
20260510050053 44 280 4.0 12.0 0.00 0.16 0.00 78 1009.4
20260510044627 44 1 2.0 8.0 0.00 0.16 0.00 78 1009.2
20260510043053 44 15 3.0 10.0 0.00 0.16 0.00 77 1008.9
20260510041554 45 24 2.0 13.0 0.00 0.16 0.00 75 1008.8
20260510040054 46 24 2.0 8.0 0.00 0.16 0.00 74 1008.6
20260510034553 47 49 2.0 7.0 0.00 0.16 0.16 80 1008.0
20260510033059 47 359 1.0 8.0 0.00 0.16 0.16 80 1007.9
20260510031557 47 4 0.0 6.0 0.00 0.16 0.16 82 1007.2
20260510030053 47 326 1.0 6.0 0.00 0.16 0.16 82 1007.7
20260510024554 48 300 2.0 5.0 0.00 0.16 0.16 82 1007.6
20260510023054 48 1 0.0 2.0 0.00 0.16 0.16 82 1006.4
20260510021554 48 1 0.0 3.0 0.00 0.16 0.16 79 1006.4
20260510020054 48 1 0.0 4.0 0.00 0.16 0.16 80 1006.1
20260510014554 48 11 0.0 6.0 0.00 0.16 0.16 80 1005.7
20260510013054 48 13 2.0 4.0 0.00 0.16 0.16 78 1005.3
20260510011558 48 12 1.0 9.0 0.00 0.16 0.16 77 1005.2
20260510010128 50 360 2.0 5.0 0.00 0.16 0.16 73 1004.7
20260510004554 52 330 0.0 5.0 0.00 0.16 0.16 69 1004.3
20260510003057 53 325 2.0 6.0 0.00 0.16 0.16 68 1004.1
20260510001558 53 350 1.0 3.0 0.00 0.16 0.16 70 1003.6
20260510000056 54 350 0.0 0.0 0.00 0.16 0.16 68 1003.2
20260509234623 54 350 0.0 0.0 0.00 0.16 0.16 69 1002.9
20260509233055 53 350 0.0 0.0 0.00 0.16 0.16 70 1002.5
20260509231555 53 323 0.0 7.0 0.00 0.16 0.16 69 1002.3
20260509230055 57 248 1.0 4.0 0.00 0.16 0.16 64 1001.8
20260509224554 56 248 1.0 4.0 0.00 0.16 0.16 65 1001.6
20260509223055 56 249 1.0 4.0 0.00 0.16 0.16 67 1001.4
20260509221555 59 249 1.0 6.0 0.00 0.16 0.16 61 1001.2
20260509220106 60 269 2.0 6.0 0.00 0.16 0.16 60 1000.9
20260509214555 62 255 2.0 6.0 0.00 0.16 0.16 56 1000.5
20260509213055 63 269 2.0 6.0 0.00 0.16 0.16 58 1000.4
20260509211557 63 234 3.0 7.0 0.00 0.16 0.16 58 1000.5
20260509210057 63 292 3.0 7.0 0.00 0.16 0.16 63 1000.6
20260509204601 63 222 1.0 6.0 0.00 0.16 0.16 70 1000.6
20260509203138 60 211 1.0 4.0 0.00 0.16 0.16 82 1000.5
20260509201612 58 171 2.0 8.0 0.14 0.16 0.16 85 1000.5